DW1375 Weather Reports


time (UTC)temp
C
wind
direction
speed
KPH
gust
KPH
rain 1hr
cm
rain 24hr
cm
rain mn
cm
humidity
%
barometer
mb
20260906094511 23 3 0.0 1.6 0.00 0.00 0.00 94 1012.8
20260906093020 23 3 0.0 1.6 0.00 0.00 0.00 94 1012.7
20260906091509 23 3 0.0 1.6 0.00 0.00 0.00 94 1012.8
20260906090009 23 3 0.0 0.0 0.00 0.00 0.00 94 1012.7
20260906084508 23 3 0.0 1.6 0.00 0.00 0.00 94 1012.7
20260906083008 23 3 0.0 1.6 0.00 0.00 0.00 94 1012.5
20260906081506 23 3 0.0 1.6 0.00 0.00 0.00 94 1012.5
20260906080005 23 3 0.0 1.6 0.00 0.00 0.00 94 1012.7
20260906074505 23 3 0.0 0.0 0.00 0.00 0.00 94 1012.9
20260906073003 23 3 0.0 3.2 0.00 0.00 0.00 94 1013.1
20260906071505 23 3 0.0 1.6 0.00 0.00 0.00 94 1012.7
20260906070135 23 3 0.0 1.6 0.00 0.00 0.00 94 1012.7
20260906064501 23 3 0.0 0.0 0.00 0.00 0.00 94 1012.4
20260906063101 23 3 0.0 1.6 0.00 0.00 0.00 94 1012.5
20260906061625 24 3 0.0 0.0 0.00 0.00 0.00 94 1012.7
20260906060056 24 3 0.0 0.0 0.00 0.00 0.00 94 1013.0
20260906054553 24 3 0.0 0.0 0.00 0.00 0.00 94 1013.0
20260906053056 24 3 0.0 0.0 0.00 0.00 0.00 93 1013.0
20260906051552 24 3 0.0 0.0 0.00 0.00 0.00 93 1013.1
20260906050107 24 3 0.0 0.0 0.00 0.00 0.00 93 1012.9
20260906044548 25 3 0.0 0.0 0.00 0.00 0.00 93 1013.1
20260906043104 25 3 0.0 0.0 0.00 0.00 0.00 93 1013.3
20260906041547 25 3 0.0 0.0 0.00 0.00 0.00 93 1013.3
20260906040106 25 3 0.0 0.0 0.00 0.00 0.00 93 1013.2
20260906034546 25 3 0.0 0.0 0.00 0.00 0.00 93 1013.4
20260906033049 25 3 0.0 0.0 0.00 0.00 0.00 93 1013.3
20260906031545 25 3 0.0 0.0 0.00 0.00 0.00 92 1013.4
20260906030043 25 3 0.0 0.0 0.00 0.00 0.00 92 1013.5
20260906024542 25 3 0.0 0.0 0.00 0.00 0.00 92 1013.3
20260906023057 25 3 0.0 0.0 0.00 0.00 0.00 92 1013.2
20260906021542 25 3 0.0 0.0 0.00 0.00 0.00 92 1012.9
20260906020041 26 3 0.0 0.0 0.00 0.00 0.00 91 1012.8
20260906014554 26 188 0.0 0.0 0.00 0.00 0.00 91 1012.5
20260906013041 26 188 0.0 0.0 0.00 0.00 0.00 91 1012.0
20260906011551 26 188 0.0 0.0 0.00 0.00 0.00 90 1012.0
20260906010040 26 188 0.0 1.6 0.00 0.00 0.00 89 1012.2
20260906004540 27 188 0.0 1.6 0.00 0.00 0.00 89 1012.2
20260906003139 27 188 0.0 0.0 0.00 0.00 0.00 87 1012.1
20260906001540 27 188 0.0 0.0 0.00 0.00 0.00 86 1011.9
20260906000039 28 188 0.0 0.0 0.00 0.00 0.00 85 1011.9
20260905234548 28 188 0.0 1.6 0.00 0.00 0.00 84 1011.9
20260905233037 28 188 0.0 3.2 0.00 0.00 0.00 83 1012.0
20260905231537 29 188 0.0 3.2 0.00 0.00 0.00 82 1012.0
20260905230042 30 188 0.0 3.2 0.00 0.00 0.00 81 1012.0
20260905224537 31 188 0.0 3.2 0.00 0.00 0.00 80 1011.8
20260905223037 31 180 0.0 3.2 0.00 0.00 0.00 78 1012.0
20260905221535 32 176 1.6 4.8 0.00 0.00 0.00 79 1011.9
20260905220034 32 283 0.0 3.2 0.00 0.00 0.00 79 1011.9
20260905214532 32 174 1.6 3.2 0.00 0.00 0.00 76 1011.9
20260905213031 32 158 1.6 6.4 0.00 0.00 0.00 78 1011.9
20260905211531 33 141 0.0 4.8 0.00 0.00 0.00 75 1012.1
20260905210031 32 140 1.6 4.8 0.00 0.00 0.00 75 1012.0
20260905204528 33 108 1.6 4.8 0.00 0.00 0.00 76 1012.1
20260905203028 33 240 1.6 3.2 0.00 0.00 0.00 74 1012.2
20260905201528 32 252 0.0 4.8 0.00 0.00 0.00 76 1012.1
20260905200039 33 226 1.6 6.4 0.00 0.00 0.00 74 1012.2
20260905194524 33 222 0.0 3.2 0.00 0.00 0.00 75 1012.3
20260905193023 33 196 0.0 3.2 0.00 0.00 0.00 70 1012.5
20260905191518 31 180 0.0 1.6 0.00 0.00 0.00 78 1012.9
20260905190039 32 228 0.0 3.2 0.00 0.00 0.00 77 1012.9
20260905184516 32 189 0.0 3.2 0.00 0.00 0.00 75 1013.0
20260905183016 31 192 1.6 4.8 0.00 0.00 0.00 80 1013.2
20260905181517 32 239 1.6 4.8 0.00 0.00 0.00 74 1013.4
20260905180017 35 240 1.6 4.8 0.00 0.00 0.00 59 1013.6
20260905174508 33 253 0.0 6.4 0.00 0.00 0.00 65 1013.7
20260905173006 33 130 0.0 4.8 0.00 0.00 0.00 62 1013.7
20260905171503 35 237 0.0 6.4 0.00 0.00 0.00 62 1014.2
20260905170059 34 241 1.6 3.2 0.00 0.00 0.00 70 1014.3
20260905164602 34 295 0.0 3.2 0.00 0.00 0.00 63 1014.6
20260905163052 33 71 1.6 4.8 0.00 0.00 0.00 68 1014.7
20260905161547 33 324 0.0 6.4 0.00 0.00 0.00 70 1014.9
20260905160044 32 58 0.0 3.2 0.00 0.00 0.00 73 1015.0
20260905154542 31 164 0.0 3.2 0.00 0.00 0.00 76 1015.0
20260905153051 31 191 0.0 3.2 0.00 0.00 0.00 81 1015.1
20260905151537 29 191 0.0 3.2 0.00 0.00 0.00 83 1015.2
20260905150031 29 274 0.0 4.8 0.00 0.00 0.00 81 1015.2
20260905144526 28 75 1.6 6.4 0.00 0.00 0.00 82 1015.2
20260905143023 27 77 1.6 6.4 0.00 0.00 0.00 85 1015.3
20260905141522 27 125 1.6 4.8 0.00 0.00 0.00 85 1015.2
20260905140015 26 125 0.0 4.8 0.00 0.00 0.00 89 1015.3
20260905134512 25 141 3.2 4.8 0.00 0.00 0.00 92 1015.3
20260905133009 24 206 0.0 0.0 0.00 0.00 0.00 94 1015.3
20260905131505 24 3 0.0 0.0 0.00 0.00 0.00 95 1015.4
20260905130011 23 3 0.0 0.0 0.00 0.00 0.00 95 1015.3
20260905124501 22 3 0.0 0.0 0.00 0.00 0.00 94 1015.4
20260905123059 22 3 0.0 0.0 0.00 0.00 0.00 95 1015.4
20260905121556 22 3 0.0 0.0 0.00 0.00 0.00 94 1015.2
20260905120105 22 3 0.0 0.0 0.00 0.00 0.00 94 1015.1
20260905114551 22 3 0.0 0.0 0.00 0.00 0.00 94 1014.9
20260905113050 22 3 0.0 0.0 0.00 0.00 0.00 94 1014.7
20260905111607 22 3 0.0 0.0 0.00 0.00 0.00 94 1014.7
20260905110055 22 3 0.0 0.0 0.00 0.00 0.00 94 1014.6
20260905104548 22 3 0.0 0.0 0.00 0.00 0.00 94 1014.6
20260905103047 22 3 0.0 0.0 0.00 0.00 0.00 94 1014.5
20260905101549 22 3 0.0 0.0 0.00 0.00 0.00 94 1014.7
20260905100047 22 3 0.0 0.0 0.00 0.00 0.00 94 1014.7